Location: Fort Wayne
(41.1310°N, 85.1290°W)
Time: 08:26:18
(UTC-05:00)

Daily predictions for brighter satellites

Satellite Brightness Start Highest point End
(mag) Time Altitude Azimuth Time Altitude Azimuth Time Altitude Azimuth
BREEZE-M DEB (TANK) 4.3 18:24:18 10° WSW 18:28:40 73° NNW 18:47:24 10° ENE
NOSS 2-2 (E) 4.3 18:44:40 10° SW 18:48:40 55° NW 18:53:22 10° NNE
NOAA 12 4.4 18:44:04 10° SE 18:49:08 48° ENE 18:54:14 10° N
METEOR-M 4.3 18:47:20 10° SE 18:52:28 50° ENE 18:57:37 10° N
GEOS 3 Rocket 4.4 18:50:08 10° NE 18:54:53 34° ESE 18:59:39 10° S
Cosmos 2360 Rocket 3.1 18:53:14 10° N 18:58:05 28° NE 19:02:56 10° ESE
Cosmos 1980 Rocket 3.7 18:53:38 10° NW 18:58:58 43° WSW 19:04:17 10° S
Cosmos 1975 Rocket 3.8 19:02:02 10° NNW 19:06:16 57° W 19:10:29 10° S
Helios 1B rocket 4.4 19:07:49 10° ESE 19:07:49 10° ESE 19:08:10 10° ESE
SKYMED 2 4.1 19:03:38 10° N 19:07:56 62° WNW 19:12:13 10° SSW
Cosmos 1633 3.4 19:08:50 10° SSE 19:12:01 28° E 19:15:13 10° NNE
FREGAT/IRIS 2.6 19:14:22 10° SSE 19:17:23 60° ENE 19:20:27 10° N
ALOS 2.5 19:15:39 10° SE 19:20:05 46° ENE 19:24:34 10° N
Cosmos 1833 4.5 19:15:28 10° S 19:20:52 46° ESE 19:26:16 10° NE
Cosmos 1536 Rocket 3.5 19:20:43 10° N 19:25:11 69° E 19:29:38 10° SSE
Cosmos 2333 Rocket 4.0 19:23:43 10° NNE 19:25:57 12° NE 19:27:00 12° NE
Cosmos 1818 3.5 19:22:37 10° SSW 19:28:03 80° ESE 19:33:32 10° NE
SL-16 R/B 2.7 19:26:36 10° NNW 19:32:14 65° WSW 19:37:49 10° S
SJ-6B 2.9 19:29:35 10° SSE 19:33:38 84° WSW 19:37:36 10° NNW
DNEPR-1 R/B 4.0 19:31:34 10° NW 19:35:45 60° WSW 19:39:56 10° SSE
FengYun 1-2 T 4.2 19:30:22 10° SSE 19:35:46 65° ENE 19:41:14 10° N
TSX-5 3.1 19:33:24 10° SSW 19:36:35 72° ESE 19:39:05 15° NNE
Resurs 01 Rocket 1.7 19:35:14 10° SSE 19:39:32 55° ENE 19:43:51 10° N
Cosmos 1340 2.5 19:37:28 10° N 19:41:16 77° E 19:45:02 10° SSE
Cosmos 407 Rocket 4.0 19:36:22 10° SSW 19:41:32 62° WNW 19:46:49 10° NNE
Meteor 1-19 Rocket 4.2 19:36:50 10° N 19:42:28 62° ENE 19:48:09 10° SSE
Cosmos 1238 Rocket 1.9 19:39:42 10° N 19:42:43 62° E 19:45:29 11° SSE
Gbstr 26 Del rocket 3.3 19:39:40 10° SSW 19:43:11 35° SE 19:43:57 32° ESE
Cosmos 676 Rocket 4.0 19:38:27 10° SSW 19:43:37 85° WNW 19:48:52 10° NNE
DELTA 2 R/B (1) 3.8 19:39:44 10° W 19:45:18 67° SSW 19:48:39 24° ESE
Cosmos 1570 Rocket 4.5 19:41:45 10° N 19:46:37 37° ENE 19:48:44 27° ESE
Cosmos 2181 Rocket 3.9 19:41:52 10° N 19:48:07 79° E 19:54:27 10° S
Cosmos 2322 Rocket 3.4 19:44:44 10° NW 19:50:03 44° WSW 19:55:19 10° S
Tiangong 2 2.0 19:50:56 10° W 19:53:51 40° SSW 19:54:33 34° SSE
Cosmos 1300 Rocket 3.5 19:51:58 10° S 19:56:21 88° W 20:00:49 10° N
Meteor 1-13 Rocket 4.2 19:51:25 10° N 19:56:59 87° W 20:02:37 10° S
Genesis I 4.2 19:53:42 10° NNW 19:56:54 30° NE 19:56:54 30° NE
Cosmos 1536 2.8 19:54:48 10° S 19:58:43 57° E 20:02:38 10° NNE
Resurs 1-3 3.5 19:57:50 10° SSE 20:02:13 82° ENE 20:06:38 10° N
Cosmos 2322 3.6 19:57:12 10° NNW 20:02:57 79° ENE 20:07:31 16° SSE
CZ-2D R/B 3.1 20:03:05 44° SE 20:04:07 67° ENE 20:07:55 10° N
FENGYUN 3A 3.9 20:00:08 10° S 20:05:30 69° WSW 20:10:56 10° NNW
Cosmos 1140 Rocket 3.4 20:01:29 10° SSW 20:06:36 86° WNW 20:11:48 10° NNE
Cosmos 2074 Rocket 4.0 20:00:43 10° S 20:06:49 58° E 20:12:58 10° NNE
Cosmos 2184 Rocket 4.0 20:01:22 10° SSE 20:07:31 57° E 20:13:39 10° NNE
Meteor 1-23 Rocket 4.2 20:03:06 10° N 20:08:52 61° ENE 20:12:58 19° SSE
SL-19 R/B 4.5 20:03:32 10° SSE 20:09:08 76° WSW 20:15:07 10° NNW
Cosmos 2208 Rocket 4.1 20:05:36 10° NNW 20:11:00 57° ENE 20:12:31 42° ESE
H-2A R/B 2.9 20:10:08 13° S 20:13:23 67° W 20:17:07 10° NNW
Spot 2 Rocket 3.8 20:10:35 10° S 20:15:36 68° WSW 20:20:40 10° NNW
COSMOS 2428 2.8 20:10:24 10° NNW 20:15:59 54° ENE 20:16:58 48° E
Cosmos 2237 4.1 20:10:49 10° NNW 20:16:34 69° ENE 20:18:32 41° SE
Meteor 2-4 Rocket 3.5 20:11:01 10° N 20:16:38 86° E 20:22:03 10° S
Cosmos 614 Rocket 3.8 20:13:53 10° SSW 20:18:59 88° WNW 20:24:05 10° NNE
Cosmos 2333 4.4 20:13:55 10° NNW 20:19:29 50° ENE 20:20:01 49° E
SAR-Lupe-4 3.7 20:20:40 73° W 20:20:40 73° W 20:24:08 10° NNW
Helios 1A 2.8 20:21:29 74° SSE 20:21:51 86° ENE 20:26:02 10° NNW
Cosmos 2237 Rocket 3.7 20:20:51 10° N 20:23:53 21° NNE 20:23:53 21° NNE
Cosmos 1850 Rocket 3.9 20:20:07 10° SSW 20:25:24 88° ESE 20:30:47 10° NNE
Okean 1 Rocket 3.8 20:22:56 10° SSW 20:27:18 54° W 20:31:43 10° N
USA 229 DEB 3.9 20:23:59 10° NNW 20:30:58 55° NE 20:32:15 49° E
USA 229 3.9 20:24:04 10° NNW 20:31:05 55° NE 20:32:19 49° E
Envisat 3.5 20:33:04 43° NNE 20:33:04 43° NNE 20:36:47 10° N
Cosmos 2285 Rocket 4.0 20:27:29 10° NNW 20:33:53 62° ENE 20:34:37 58° E
Cosmos 2219 3.1 20:33:24 10° SSW 20:39:09 86° ESE 20:41:02 45° NNE
Cosmos 2360 Rocket 3.2 20:36:54 10° NW 20:42:14 43° WSW 20:47:02 12° S
Helios 1B rocket 3.7 20:44:11 35° SW 20:44:11 35° SW 20:46:43 10° SSW
Cosmos 2219 Rocket 2.8 20:40:06 10° NNW 20:44:08 41° NNE 20:44:08 41° NNE
Cosmos 1025 Rocket 4.1 20:51:49 10° NNW 20:55:30 44° WNW 20:55:30 44° WNW
SL-16 R/B 4.4 20:53:11 10° N 20:54:14 13° NNE 20:54:14 13° NNE
Meteor 2-13 Rocket 4.4 20:55:56 10° S 21:01:59 81° W 21:08:07 10° N
NOSS 3-1 (C) 4.5 20:57:15 10° NNW 21:03:46 45° NNE 21:03:46 45° NNE
Cosmos 2333 Rocket 3.3 21:05:36 10° NNW 21:09:02 37° N 21:09:02 37° N
BREEZE-M DEB (TANK) 4.2 21:10:12 10° WNW 21:12:05 35° W 21:12:05 35° W
